| time (UTC) | temp F | wind direction | speed knots | gust knots | rain 1hr in | rain 24hr in | rain mn in | humidity % | barometer mb |
| 20260904122445 | 54 | 138 | 2.6 | 3.5 | 0.01 | 0.52 | 0.15 | 90 | 1009.1 |
| 20260904122210 | 54 | 137 | 1.7 | 3.5 | 0.01 | 0.52 | 0.15 | 91 | 1009.1 |
| 20260904121446 | 54 | 139 | 0.9 | 2.6 | 0.00 | 0.51 | 0.14 | 91 | 1009.1 |
| 20260904120945 | 54 | 145 | 0.0 | 2.6 | 0.00 | 0.51 | 0.14 | 92 | 1009.2 |
| 20260904120447 | 54 | 154 | 0.0 | 1.7 | 0.00 | 0.51 | 0.14 | 92 | 1009.1 |
| 20260904115935 | 54 | 142 | 0.0 | 2.6 | 0.00 | 0.51 | 0.14 | 92 | 1009.1 |
| 20260904115435 | 54 | 142 | 0.9 | 3.5 | 0.00 | 0.51 | 0.14 | 91 | 1009.0 |
| 20260904114930 | 54 | 142 | 1.7 | 4.3 | 0.00 | 0.51 | 0.14 | 91 | 1009.1 |
| 20260904114432 | 54 | 131 | 1.7 | 4.3 | 0.00 | 0.51 | 0.14 | 92 | 1009.1 |
| 20260904114149 | 54 | 134 | 0.9 | 2.6 | 0.00 | 0.51 | 0.14 | 92 | 1009.0 |
| 20260904113423 | 54 | 133 | 0.9 | 2.6 | 0.00 | 0.51 | 0.14 | 92 | 1008.9 |
| 20260904112921 | 54 | 134 | 0.9 | 2.6 | 0.00 | 0.51 | 0.14 | 92 | 1008.8 |
| 20260904112414 | 54 | 143 | 0.9 | 2.6 | 0.00 | 0.51 | 0.14 | 92 | 1008.8 |
| 20260904111912 | 54 | 139 | 0.9 | 2.6 | 0.00 | 0.51 | 0.14 | 92 | 1008.8 |
| 20260904111407 | 54 | 130 | 0.9 | 2.6 | 0.00 | 0.51 | 0.14 | 92 | 1008.8 |
| 20260904110853 | 54 | 154 | 0.0 | 2.6 | 0.00 | 0.51 | 0.14 | 92 | 1008.8 |
| 20260904110614 | 54 | 154 | 0.9 | 4.3 | 0.00 | 0.51 | 0.14 | 92 | 1008.8 |
| 20260904105853 | 54 | 108 | 0.0 | 4.3 | 0.00 | 0.51 | 0.14 | 92 | 1008.8 |
| 20260904105827 | 54 | 136 | 0.0 | 1.7 | 0.00 | 0.51 | 0.14 | 92 | 1008.7 |
| 20260904104837 | 54 | 114 | 0.9 | 3.5 | 0.00 | 0.51 | 0.14 | 92 | 1008.6 |
| 20260904104331 | 54 | 104 | 1.7 | 3.5 | 0.00 | 0.51 | 0.14 | 92 | 1008.6 |
| 20260904103831 | 54 | 135 | 1.7 | 4.3 | 0.00 | 0.51 | 0.14 | 92 | 1008.7 |
| 20260904103822 | 54 | 120 | 1.7 | 4.3 | 0.00 | 0.51 | 0.14 | 92 | 1008.7 |
| 20260904102829 | 54 | 148 | 0.9 | 3.5 | 0.00 | 0.51 | 0.14 | 92 | 1008.7 |
| 20260904102328 | 54 | 126 | 0.9 | 3.5 | 0.00 | 0.51 | 0.14 | 92 | 1008.7 |
| 20260904101826 | 54 | 141 | 0.0 | 3.5 | 0.00 | 0.51 | 0.14 | 92 | 1008.8 |
| 20260904101326 | 54 | 141 | 0.9 | 2.6 | 0.00 | 0.51 | 0.14 | 92 | 1008.7 |
| 20260904100823 | 54 | 141 | 0.0 | 2.6 | 0.00 | 0.51 | 0.14 | 92 | 1008.7 |
| 20260904100548 | 54 | 141 | 0.0 | 1.7 | 0.00 | 0.51 | 0.14 | 92 | 1008.7 |
| 20260904095815 | 54 | 141 | 0.0 | 1.7 | 0.00 | 0.51 | 0.14 | 92 | 1008.7 |
| 20260904095300 | 54 | 141 | 0.9 | 2.6 | 0.00 | 0.51 | 0.14 | 92 | 1008.6 |
| 20260904095003 | 54 | 141 | 1.7 | 3.5 | 0.00 | 0.51 | 0.14 | 92 | 1008.7 |
| 20260904094242 | 54 | 124 | 1.7 | 3.5 | 0.00 | 0.51 | 0.14 | 92 | 1008.8 |
| 20260904093735 | 54 | 149 | 1.7 | 5.2 | 0.00 | 0.51 | 0.14 | 92 | 1008.7 |
| 20260904093233 | 54 | 155 | 1.7 | 5.2 | 0.00 | 0.51 | 0.14 | 92 | 1008.7 |
| 20260904092734 | 54 | 143 | 2.6 | 6.1 | 0.00 | 0.51 | 0.14 | 92 | 1008.6 |
| 20260904092233 | 54 | 143 | 2.6 | 6.1 | 0.00 | 0.51 | 0.14 | 91 | 1008.7 |
| 20260904091815 | 55 | 143 | 2.6 | 8.7 | 0.00 | 0.51 | 0.14 | 91 | 1008.7 |
| 20260904091731 | 55 | 126 | 2.6 | 8.7 | 0.00 | 0.51 | 0.14 | 91 | 1008.6 |
| 20260904091503 | 55 | 129 | 3.5 | 8.7 | 0.00 | 0.51 | 0.14 | 91 | 1008.6 |
| 20260904090447 | 55 | 156 | 4.3 | 10.4 | 0.01 | 0.51 | 0.14 | 91 | 1008.6 |
| 20260904085723 | 55 | 118 | 4.3 | 10.4 | 0.01 | 0.51 | 0.14 | 91 | 1008.6 |
| 20260904085217 | 55 | 134 | 4.3 | 8.7 | 0.04 | 0.51 | 0.14 | 92 | 1008.7 |
| 20260904084716 | 55 | 147 | 4.3 | 8.7 | 0.06 | 0.51 | 0.14 | 92 | 1008.6 |
| 20260904084216 | 55 | 137 | 4.3 | 8.7 | 0.07 | 0.51 | 0.14 | 92 | 1008.6 |
| 20260904083716 | 55 | 154 | 4.3 | 8.7 | 0.08 | 0.51 | 0.14 | 92 | 1008.6 |
| 20260904083214 | 55 | 122 | 4.3 | 9.6 | 0.09 | 0.51 | 0.14 | 92 | 1008.4 |
| 20260904082713 | 55 | 112 | 4.3 | 9.6 | 0.11 | 0.51 | 0.14 | 92 | 1008.5 |
| 20260904082212 | 54 | 102 | 4.3 | 10.4 | 0.12 | 0.51 | 0.14 | 92 | 1008.5 |
| 20260904081716 | 54 | 121 | 4.3 | 10.4 | 0.14 | 0.51 | 0.14 | 93 | 1008.5 |
| 20260904081436 | 54 | 121 | 4.3 | 8.7 | 0.14 | 0.51 | 0.14 | 93 | 1008.6 |
| 20260904080711 | 54 | 93 | 4.3 | 8.7 | 0.14 | 0.51 | 0.14 | 93 | 1008.4 |
| 20260904080210 | 55 | 122 | 4.3 | 8.7 | 0.13 | 0.50 | 0.13 | 93 | 1008.5 |
| 20260904080156 | 55 | 96 | 3.5 | 7.8 | 0.13 | 0.50 | 0.13 | 93 | 1008.7 |
| 20260904075212 | 54 | 87 | 2.6 | 7.0 | 0.10 | 0.47 | 0.11 | 93 | 1008.7 |
| 20260904074710 | 55 | 87 | 1.7 | 5.2 | 0.08 | 0.45 | 0.09 | 92 | 1008.6 |
| 20260904074208 | 55 | 108 | 0.9 | 3.5 | 0.07 | 0.44 | 0.07 | 92 | 1008.9 |
| 20260904073706 | 55 | 128 | 0.9 | 2.6 | 0.07 | 0.43 | 0.06 | 92 | 1008.9 |
| 20260904073205 | 55 | 144 | 0.9 | 5.2 | 0.06 | 0.42 | 0.05 | 92 | 1008.9 |
| 20260904072706 | 55 | 159 | 1.7 | 5.2 | 0.04 | 0.40 | 0.03 | 91 | 1008.9 |
| 20260904072209 | 55 | 154 | 3.5 | 7.0 | 0.03 | 0.39 | 0.02 | 90 | 1008.9 |
| 20260904071703 | 55 | 168 | 3.5 | 7.0 | 0.01 | 0.37 | 0.00 | 89 | 1008.6 |
| 20260904071202 | 55 | 128 | 3.5 | 8.7 | 0.01 | 0.37 | 0.00 | 89 | 1008.6 |
| 20260904070703 | 55 | 126 | 3.5 | 8.7 | 0.02 | 0.37 | 0.00 | 90 | 1008.5 |
| 20260904070203 | 55 | 123 | 3.5 | 7.8 | 0.02 | 0.37 | 0.00 | 90 | 1008.3 |
| 20260904065921 | 55 | 118 | 3.5 | 7.8 | 0.02 | 0.37 | 0.37 | 90 | 1008.3 |
| 20260904065201 | 55 | 115 | 2.6 | 7.8 | 0.02 | 0.37 | 0.37 | 90 | 1008.3 |
| 20260904064700 | 55 | 131 | 2.6 | 7.0 | 0.02 | 0.37 | 0.37 | 90 | 1008.3 |
| 20260904064159 | 55 | 134 | 1.7 | 7.0 | 0.03 | 0.37 | 0.37 | 91 | 1008.2 |
| 20260904064149 | 55 | 131 | 1.7 | 4.3 | 0.02 | 0.36 | 0.36 | 91 | 1008.3 |
| 20260904063416 | 55 | 101 | 2.6 | 6.1 | 0.02 | 0.36 | 0.36 | 91 | 1008.3 |
| 20260904063252 | 55 | 145 | 1.7 | 6.1 | 0.02 | 0.36 | 0.36 | 91 | 1008.4 |
| 20260904062200 | 55 | 95 | 2.6 | 6.1 | 0.03 | 0.36 | 0.36 | 91 | 1008.3 |
| 20260904061657 | 55 | 104 | 2.6 | 6.1 | 0.04 | 0.36 | 0.36 | 91 | 1008.2 |
| 20260904061159 | 55 | 104 | 2.6 | 7.0 | 0.04 | 0.36 | 0.36 | 91 | 1008.2 |
| 20260904060652 | 55 | 82 | 2.6 | 7.0 | 0.04 | 0.35 | 0.35 | 91 | 1008.4 |
| 20260904060411 | 55 | 106 | 2.6 | 7.0 | 0.05 | 0.35 | 0.35 | 91 | 1008.4 |
| 20260904055650 | 55 | 103 | 2.6 | 5.2 | 0.05 | 0.35 | 0.35 | 91 | 1008.4 |
| 20260904055144 | 55 | 91 | 1.7 | 5.2 | 0.05 | 0.35 | 0.35 | 92 | 1008.5 |
| 20260904054640 | 55 | 76 | 0.9 | 4.3 | 0.06 | 0.35 | 0.35 | 92 | 1008.5 |
| 20260904054633 | 55 | 83 | 1.7 | 6.1 | 0.05 | 0.34 | 0.34 | 92 | 1008.5 |
| 20260904053641 | 55 | 79 | 1.7 | 7.8 | 0.05 | 0.34 | 0.34 | 92 | 1008.6 |
| 20260904053130 | 55 | 104 | 1.7 | 7.8 | 0.05 | 0.34 | 0.34 | 92 | 1008.7 |
| 20260904052611 | 55 | 109 | 0.9 | 3.5 | 0.04 | 0.33 | 0.33 | 92 | 1008.7 |
| 20260904052112 | 55 | 99 | 0.0 | 1.7 | 0.04 | 0.33 | 0.33 | 92 | 1008.8 |
| 20260904051606 | 55 | 172 | 0.0 | 0.9 | 0.03 | 0.32 | 0.32 | 92 | 1008.8 |
| 20260904051056 | 56 | 172 | 0.0 | 2.6 | 0.03 | 0.32 | 0.32 | 92 | 1009.0 |
| 20260904050820 | 56 | 174 | 0.9 | 3.5 | 0.02 | 0.31 | 0.31 | 91 | 1009.0 |
| 20260904050050 | 56 | 137 | 1.7 | 3.5 | 0.01 | 0.30 | 0.30 | 91 | 1009.0 |
| 20260904045550 | 56 | 128 | 1.7 | 4.3 | 0.01 | 0.30 | 0.30 | 91 | 1009.0 |
| 20260904045048 | 56 | 125 | 1.7 | 4.3 | 0.01 | 0.30 | 0.30 | 91 | 1008.9 |
| 20260904044549 | 56 | 84 | 1.7 | 4.3 | 0.00 | 0.29 | 0.29 | 90 | 1008.9 |
| 20260904044046 | 56 | 124 | 2.6 | 5.2 | 0.00 | 0.29 | 0.29 | 90 | 1008.9 |
| 20260904043548 | 56 | 165 | 2.6 | 5.2 | 0.00 | 0.29 | 0.29 | 90 | 1008.9 |
| 20260904043046 | 56 | 141 | 2.6 | 5.2 | 0.00 | 0.29 | 0.29 | 90 | 1008.8 |
| 20260904042545 | 56 | 80 | 2.6 | 6.1 | 0.00 | 0.29 | 0.29 | 90 | 1008.8 |
| 20260904042045 | 56 | 137 | 2.6 | 6.1 | 0.01 | 0.29 | 0.29 | 90 | 1008.8 |
| 20260904041806 | 56 | 139 | 2.6 | 5.2 | 0.01 | 0.29 | 0.29 | 90 | 1008.9 |
| 20260904041043 | 56 | 141 | 2.6 | 8.7 | 0.01 | 0.29 | 0.29 | 90 | 1008.9 |
| 20260904040542 | 56 | 126 | 2.6 | 8.7 | 0.01 | 0.29 | 0.29 | 90 | 1008.9 |
| 20260904040042 | 56 | 106 | 1.7 | 4.3 | 0.01 | 0.29 | 0.29 | 89 | 1009.0 |
| 20260904035544 | 56 | 108 | 2.6 | 4.3 | 0.01 | 0.29 | 0.29 | 89 | 1008.9 |
| 20260904035044 | 56 | 126 | 1.7 | 4.3 | 0.01 | 0.29 | 0.29 | 90 | 1008.9 |
| 20260904034544 | 56 | 128 | 1.7 | 4.3 | 0.01 | 0.29 | 0.29 | 90 | 1008.9 |
| 20260904034038 | 56 | 107 | 1.7 | 4.3 | 0.01 | 0.29 | 0.29 | 90 | 1008.8 |
| 20260904033540 | 56 | 123 | 1.7 | 4.3 | 0.01 | 0.29 | 0.29 | 90 | 1008.9 |
| 20260904033036 | 56 | 127 | 1.7 | 4.3 | 0.01 | 0.29 | 0.29 | 90 | 1008.7 |
| 20260904032538 | 56 | 134 | 0.9 | 4.3 | 0.01 | 0.29 | 0.29 | 90 | 1008.8 |
| 20260904032036 | 56 | 112 | 0.9 | 4.3 | 0.00 | 0.28 | 0.28 | 90 | 1008.8 |
| 20260904031538 | 56 | 147 | 1.7 | 4.3 | 0.00 | 0.28 | 0.28 | 90 | 1008.8 |
| 20260904031033 | 56 | 126 | 1.7 | 5.2 | 0.00 | 0.28 | 0.28 | 90 | 1008.7 |
| 20260904030534 | 56 | 120 | 1.7 | 5.2 | 0.00 | 0.28 | 0.28 | 90 | 1008.7 |
| 20260904030033 | 56 | 118 | 1.7 | 4.3 | 0.00 | 0.28 | 0.28 | 90 | 1008.7 |
| 20260904025531 | 56 | 91 | 1.7 | 3.5 | 0.00 | 0.28 | 0.28 | 90 | 1008.6 |
| 20260904025031 | 56 | 108 | 1.7 | 2.6 | 0.00 | 0.28 | 0.28 | 90 | 1008.7 |
| 20260904024530 | 56 | 118 | 0.9 | 2.6 | 0.00 | 0.28 | 0.28 | 90 | 1008.7 |
| 20260904024029 | 56 | 101 | 0.9 | 3.5 | 0.00 | 0.28 | 0.28 | 90 | 1008.6 |
| 20260904023754 | 56 | 121 | 0.9 | 3.5 | 0.00 | 0.28 | 0.28 | 89 | 1008.6 |
| 20260904023247 | 56 | 120 | 0.9 | 4.3 | 0.01 | 0.28 | 0.28 | 89 | 1008.6 |
| 20260904022520 | 57 | 116 | 1.7 | 4.3 | 0.01 | 0.28 | 0.28 | 89 | 1008.6 |
| 20260904022236 | 57 | 126 | 1.7 | 7.0 | 0.01 | 0.28 | 0.28 | 89 | 1008.5 |
| 20260904021512 | 57 | 132 | 3.5 | 7.0 | 0.03 | 0.28 | 0.28 | 89 | 1008.5 |
| 20260904021007 | 57 | 136 | 4.3 | 7.0 | 0.04 | 0.28 | 0.28 | 89 | 1008.7 |
| 20260904020725 | 57 | 129 | 4.3 | 7.0 | 0.05 | 0.28 | 0.28 | 89 | 1008.7 |
| 20260904020226 | 57 | 120 | 3.5 | 7.0 | 0.05 | 0.28 | 0.28 | 89 | 1008.7 |
| 20260904015457 | 57 | 148 | 3.5 | 7.8 | 0.07 | 0.28 | 0.28 | 89 | 1008.8 |
| 20260904014956 | 57 | 160 | 3.5 | 7.8 | 0.08 | 0.28 | 0.28 | 89 | 1008.8 |
| 20260904014455 | 57 | 134 | 2.6 | 5.2 | 0.08 | 0.28 | 0.28 | 89 | 1008.8 |
| 20260904013952 | 57 | 101 | 2.6 | 4.3 | 0.09 | 0.28 | 0.28 | 91 | 1008.8 |
| 20260904013454 | 57 | 129 | 2.6 | 5.2 | 0.09 | 0.28 | 0.28 | 91 | 1008.9 |
| 20260904012952 | 57 | 118 | 1.7 | 5.2 | 0.08 | 0.27 | 0.28 | 91 | 1008.9 |
| 20260904012452 | 57 | 140 | 1.7 | 3.5 | 0.08 | 0.27 | 0.27 | 91 | 1008.8 |
| 20260904011951 | 57 | 136 | 1.7 | 3.5 | 0.08 | 0.27 | 0.27 | 90 | 1008.9 |
| 20260904011449 | 57 | 131 | 0.9 | 3.5 | 0.06 | 0.25 | 0.25 | 90 | 1009.1 |
| 20260904010951 | 57 | 155 | 0.9 | 2.6 | 0.05 | 0.24 | 0.24 | 90 | 1009.0 |
| 20260904010443 | 57 | 169 | 1.7 | 3.5 | 0.04 | 0.23 | 0.23 | 89 | 1009.1 |
| 20260904005940 | 58 | 193 | 2.6 | 6.1 | 0.04 | 0.23 | 0.23 | 88 | 1009.0 |
| 20260904005439 | 58 | 151 | 3.5 | 7.0 | 0.02 | 0.21 | 0.21 | 86 | 1009.0 |
| 20260904004940 | 58 | 142 | 5.2 | 10.4 | 0.01 | 0.20 | 0.20 | 85 | 1008.8 |
| 20260904004708 | 59 | 156 | 7.0 | 10.4 | 0.01 | 0.20 | 0.20 | 83 | 1008.7 |
| 20260904003939 | 59 | 119 | 6.1 | 10.4 | 0.00 | 0.19 | 0.19 | 82 | 1008.8 |
| 20260904003656 | 60 | 131 | 5.2 | 10.4 | 0.00 | 0.19 | 0.19 | 82 | 1008.9 |
| 20260904002938 | 60 | 143 | 4.3 | 8.7 | 0.00 | 0.19 | 0.19 | 81 | 1008.9 |
| 20260904002438 | 60 | 138 | 5.2 | 8.7 | 0.00 | 0.19 | 0.19 | 80 | 1008.9 |
| 20260904002156 | 60 | 158 | 6.1 | 9.6 | 0.00 | 0.19 | 0.19 | 80 | 1008.8 |
| 20260904001430 | 60 | 141 | 7.0 | 12.2 | 0.00 | 0.19 | 0.19 | 80 | 1008.8 |
| 20260904000930 | 60 | 143 | 7.0 | 12.2 | 0.00 | 0.20 | 0.19 | 79 | 1008.8 |
| 20260904000432 | 60 | 142 | 6.1 | 10.4 | 0.00 | 0.20 | 0.19 | 80 | 1008.8 |
| 20260903235923 | 60 | 110 | 6.1 | 10.4 | 0.00 | 0.22 | 0.19 | 80 | 1008.8 |
| 20260903235424 | 60 | 133 | 6.1 | 10.4 | 0.00 | 0.24 | 0.19 | 80 | 1008.9 |
| 20260903234923 | 60 | 125 | 6.1 | 9.6 | 0.00 | 0.26 | 0.19 | 81 | 1008.9 |
| 20260903234419 | 60 | 126 | 6.1 | 10.4 | 0.00 | 0.27 | 0.19 | 81 | 1008.8 |
| 20260903233917 | 59 | 149 | 5.2 | 10.4 | 0.00 | 0.30 | 0.19 | 81 | 1008.8 |
| 20260903233416 | 59 | 136 | 4.3 | 10.4 | 0.00 | 0.35 | 0.19 | 82 | 1008.9 |
| 20260903232909 | 59 | 145 | 3.5 | 7.0 | 0.00 | 0.37 | 0.19 | 82 | 1008.9 |
| 20260903232410 | 59 | 176 | 3.5 | 6.1 | 0.00 | 0.41 | 0.19 | 82 | 1009.0 |
| 20260903231909 | 59 | 159 | 3.5 | 7.0 | 0.00 | 0.41 | 0.19 | 82 | 1009.0 |
| 20260903231407 | 59 | 157 | 4.3 | 7.8 | 0.00 | 0.41 | 0.19 | 81 | 1009.0 |
| 20260903231130 | 59 | 124 | 5.2 | 8.7 | 0.00 | 0.42 | 0.19 | 81 | 1009.0 |
| 20260903230404 | 59 | 129 | 5.2 | 9.6 | 0.00 | 0.42 | 0.19 | 81 | 1009.1 |
| 20260903225903 | 59 | 126 | 5.2 | 9.6 | 0.00 | 0.43 | 0.19 | 81 | 1009.3 |
| 20260903225403 | 59 | 118 | 6.1 | 9.6 | 0.05 | 0.43 | 0.19 | 81 | 1009.2 |
| 20260903224902 | 59 | 149 | 6.1 | 9.6 | 0.07 | 0.43 | 0.19 | 81 | 1009.3 |
| 20260903224401 | 59 | 156 | 6.1 | 9.6 | 0.15 | 0.43 | 0.19 | 83 | 1009.4 |
| 20260903223859 | 58 | 140 | 6.1 | 9.6 | 0.18 | 0.43 | 0.19 | 83 | 1009.5 |
| 20260903223401 | 58 | 129 | 5.2 | 9.6 | 0.19 | 0.43 | 0.19 | 84 | 1009.5 |
| 20260903222858 | 58 | 142 | 5.2 | 9.6 | 0.19 | 0.43 | 0.19 | 86 | 1009.5 |
| 20260903222359 | 58 | 143 | 4.3 | 8.7 | 0.19 | 0.43 | 0.19 | 84 | 1009.5 |
| 20260903221856 | 58 | 143 | 2.6 | 8.7 | 0.19 | 0.43 | 0.19 | 86 | 1009.5 |
| 20260903221359 | 56 | 143 | 4.3 | 14.8 | 0.19 | 0.44 | 0.19 | 85 | 1009.5 |
| 20260903220856 | 56 | 158 | 7.8 | 14.8 | 0.19 | 0.44 | 0.19 | 85 | 1009.6 |
| 20260903220355 | 56 | 172 | 7.8 | 13.0 | 0.19 | 0.44 | 0.19 | 86 | 1009.8 |
| 20260903215853 | 56 | 139 | 8.7 | 15.6 | 0.18 | 0.43 | 0.19 | 88 | 1010.0 |
| 20260903215842 | 57 | 170 | 7.8 | 15.6 | 0.14 | 0.41 | 0.15 | 88 | 1009.9 |
| 20260903214853 | 58 | 254 | 2.6 | 13.0 | 0.11 | 0.38 | 0.11 | 84 | 1009.6 |
| 20260903214351 | 60 | 234 | 3.5 | 13.9 | 0.04 | 0.31 | 0.04 | 81 | 1009.4 |
| 20260903213851 | 61 | 245 | 7.8 | 13.9 | 0.01 | 0.28 | 0.02 | 75 | 1009.3 |
| 20260903213842 | 63 | 272 | 7.8 | 13.0 | 0.00 | 0.27 | 0.01 | 70 | 1009.0 |
| 20260903212849 | 65 | 281 | 6.1 | 13.0 | 0.00 | 0.27 | 0.00 | 62 | 1008.9 |
| 20260903212615 | 65 | 187 | 4.3 | 9.6 | 0.00 | 0.28 | 0.00 | 61 | 1008.8 |
| 20260903211848 | 65 | 233 | 4.3 | 9.6 | 0.00 | 0.30 | 0.00 | 61 | 1008.9 |
| 20260903211349 | 65 | 231 | 5.2 | 10.4 | 0.00 | 0.31 | 0.00 | 62 | 1008.9 |
| 20260903210847 | 65 | 178 | 6.1 | 12.2 | 0.00 | 0.31 | 0.00 | 61 | 1008.8 |
| 20260903210346 | 65 | 193 | 6.1 | 12.2 | 0.00 | 0.31 | 0.00 | 62 | 1008.9 |
| 20260903205845 | 65 | 207 | 7.8 | 13.9 | 0.00 | 0.31 | 0.00 | 62 | 1008.8 |
| 20260903205344 | 65 | 193 | 9.6 | 17.4 | 0.00 | 0.31 | 0.00 | 60 | 1008.8 |
| 20260903204845 | 65 | 199 | 8.7 | 17.4 | 0.00 | 0.31 | 0.00 | 61 | 1008.8 |
| 20260903204343 | 65 | 156 | 7.8 | 14.8 | 0.00 | 0.31 | 0.00 | 60 | 1008.8 |
| 20260903204105 | 65 | 218 | 7.8 | 15.6 | 0.00 | 0.31 | 0.00 | 63 | 1008.9 |
| 20260903203342 | 65 | 172 | 9.6 | 15.6 | 0.00 | 0.32 | 0.00 | 63 | 1009.0 |
| 20260903202843 | 65 | 177 | 9.6 | 17.4 | 0.00 | 0.32 | 0.00 | 62 | 1009.1 |
| 20260903202341 | 65 | 173 | 9.6 | 17.4 | 0.00 | 0.32 | 0.00 | 62 | 1009.0 |
| 20260903201842 | 66 | 185 | 9.6 | 17.4 | 0.00 | 0.32 | 0.00 | 60 | 1009.1 |
| 20260903201342 | 66 | 172 | 9.6 | 16.5 | 0.00 | 0.32 | 0.00 | 62 | 1009.1 |
| 20260903201100 | 66 | 145 | 10.4 | 19.1 | 0.00 | 0.32 | 0.00 | 62 | 1009.0 |
| 20260903200337 | 65 | 179 | 9.6 | 19.1 | 0.00 | 0.32 | 0.00 | 62 | 1009.2 |
| 20260903195835 | 66 | 172 | 9.6 | 19.1 | 0.00 | 0.32 | 0.00 | 64 | 1009.3 |
| 20260903195331 | 66 | 260 | 9.6 | 18.2 | 0.00 | 0.32 | 0.00 | 66 | 1009.1 |
| 20260903194829 | 67 | 161 | 8.7 | 19.1 | 0.00 | 0.32 | 0.00 | 62 | 1009.2 |
| 20260903194329 | 67 | 162 | 7.8 | 19.1 | 0.00 | 0.32 | 0.00 | 67 | 1009.3 |
| 20260903194305 | 66 | 183 | 7.8 | 13.0 | 0.00 | 0.32 | 0.00 | 67 | 1009.3 |
| 20260903193326 | 64 | 155 | 7.8 | 13.0 | 0.00 | 0.32 | 0.00 | 68 | 1009.5 |
| 20260903192820 | 63 | 190 | 7.8 | 16.5 | 0.00 | 0.32 | 0.00 | 70 | 1009.5 |
| 20260903192317 | 63 | 197 | 7.8 | 16.5 | 0.00 | 0.32 | 0.00 | 70 | 1009.6 |
| 20260903192034 | 63 | 203 | 7.8 | 15.6 | 0.00 | 0.32 | 0.00 | 71 | 1009.6 |
| 20260903191315 | 62 | 234 | 7.8 | 15.6 | 0.00 | 0.32 | 0.00 | 73 | 1009.8 |
| 20260903190810 | 62 | 197 | 8.7 | 14.8 | 0.00 | 0.32 | 0.00 | 73 | 1009.9 |
| 20260903190310 | 61 | 178 | 9.6 | 16.5 | 0.00 | 0.33 | 0.00 | 74 | 1010.1 |
| 20260903185810 | 61 | 159 | 8.7 | 16.5 | 0.00 | 0.33 | 0.00 | 74 | 1010.0 |
| 20260903185530 | 62 | 194 | 7.8 | 13.9 | 0.00 | 0.33 | 0.00 | 74 | 1010.0 |
| 20260903184808 | 62 | 160 | 7.8 | 15.6 | 0.00 | 0.33 | 0.00 | 76 | 1010.0 |
| 20260903184307 | 60 | 146 | 8.7 | 15.6 | 0.00 | 0.33 | 0.00 | 76 | 1010.0 |
| 20260903183806 | 60 | 173 | 8.7 | 15.6 | 0.00 | 0.34 | 0.00 | 76 | 1010.1 |
| 20260903183305 | 60 | 145 | 7.8 | 15.6 | 0.00 | 0.34 | 0.00 | 75 | 1010.1 |
| 20260903182804 | 60 | 157 | 7.0 | 12.2 | 0.00 | 0.34 | 0.00 | 76 | 1010.1 |
| 20260903182306 | 59 | 183 | 7.0 | 12.2 | 0.00 | 0.34 | 0.00 | 77 | 1010.1 |
| 20260903181805 | 59 | 165 | 7.0 | 12.2 | 0.00 | 0.34 | 0.00 | 77 | 1010.0 |
| 20260903181302 | 59 | 135 | 7.0 | 12.2 | 0.00 | 0.34 | 0.00 | 77 | 1010.0 |
| 20260903180801 | 59 | 149 | 8.7 | 13.9 | 0.00 | 0.34 | 0.00 | 78 | 1010.0 |
| 20260903180305 | 59 | 181 | 7.8 | 13.9 | 0.00 | 0.35 | 0.00 | 77 | 1010.0 |
| 20260903175801 | 59 | 164 | 7.8 | 13.0 | 0.00 | 0.35 | 0.00 | 78 | 1010.0 |
| 20260903175300 | 59 | 148 | 7.0 | 13.0 | 0.00 | 0.35 | 0.00 | 77 | 1010.0 |
| 20260903174800 | 59 | 174 | 6.1 | 11.3 | 0.00 | 0.35 | 0.00 | 77 | 1010.0 |
| 20260903174258 | 59 | 205 | 5.2 | 10.4 | 0.00 | 0.35 | 0.00 | 77 | 1010.0 |
| 20260903174027 | 59 | 175 | 5.2 | 12.2 | 0.00 | 0.35 | 0.00 | 77 | 1010.0 |
| 20260903173522 | 59 | 191 | 6.1 | 12.2 | 0.00 | 0.36 | 0.00 | 77 | 1009.9 |
| 20260903173019 | 59 | 152 | 5.2 | 10.4 | 0.00 | 0.38 | 0.00 | 77 | 1009.8 |
| 20260903172524 | 59 | 164 | 6.1 | 13.9 | 0.00 | 0.39 | 0.00 | 77 | 1009.9 |
| 20260903171754 | 59 | 180 | 6.1 | 13.9 | 0.00 | 0.40 | 0.00 | 78 | 1009.8 |
| 20260903171254 | 59 | 155 | 6.1 | 12.2 | 0.00 | 0.42 | 0.00 | 79 | 1009.8 |
| 20260903170753 | 59 | 163 | 6.1 | 13.9 | 0.00 | 0.45 | 0.00 | 78 | 1009.8 |
| 20260903170254 | 59 | 158 | 7.0 | 13.9 | 0.00 | 0.47 | 0.00 | 77 | 1009.7 |
| 20260903165751 | 59 | 164 | 7.0 | 11.3 | 0.00 | 0.48 | 0.00 | 78 | 1009.7 |
| 20260903165518 | 58 | 154 | 7.0 | 13.0 | 0.00 | 0.49 | 0.00 | 79 | 1009.8 |
| 20260903164752 | 58 | 164 | 7.0 | 13.0 | 0.00 | 0.50 | 0.00 | 79 | 1009.8 |
| 20260903164249 | 58 | 174 | 6.1 | 12.2 | 0.00 | 0.50 | 0.00 | 80 | 1009.9 |
| 20260903164013 | 58 | 153 | 6.1 | 12.2 | 0.00 | 0.50 | 0.00 | 81 | 1009.9 |
| 20260903163248 | 58 | 163 | 5.2 | 10.4 | 0.00 | 0.50 | 0.00 | 82 | 1009.9 |
| 20260903162749 | 58 | 174 | 5.2 | 10.4 | 0.00 | 0.50 | 0.00 | 82 | 1009.9 |
| 20260903162240 | 58 | 151 | 5.2 | 11.3 | 0.00 | 0.50 | 0.00 | 83 | 1009.9 |
| 20260903161740 | 58 | 184 | 5.2 | 11.3 | 0.00 | 0.51 | 0.00 | 83 | 1010.0 |
| 20260903161241 | 57 | 128 | 6.1 | 12.2 | 0.00 | 0.51 | 0.00 | 84 | 1010.0 |
| 20260903160950 | 57 | 135 | 6.1 | 10.4 | 0.00 | 0.51 | 0.00 | 84 | 1010.1 |
| 20260903160832 | 57 | 164 | 7.0 | 12.2 | 0.00 | 0.51 | 0.00 | 84 | 1010.0 |
| 20260903155737 | 57 | 176 | 5.2 | 9.6 | 0.00 | 0.52 | 0.00 | 84 | 1010.1 |
| 20260903155236 | 56 | 172 | 5.2 | 9.6 | 0.00 | 0.53 | 0.00 | 85 | 1010.3 |
| 20260903154737 | 56 | 187 | 5.2 | 9.6 | 0.00 | 0.54 | 0.00 | 85 | 1010.2 |
| 20260903154233 | 56 | 145 | 6.1 | 13.0 | 0.00 | 0.54 | 0.00 | 85 | 1010.2 |
| 20260903153731 | 56 | 172 | 7.0 | 13.0 | 0.00 | 0.54 | 0.00 | 85 | 1010.2 |
| 20260903153231 | 56 | 169 | 6.1 | 10.4 | 0.00 | 0.54 | 0.00 | 85 | 1010.3 |
| 20260903152723 | 56 | 203 | 5.2 | 9.6 | 0.00 | 0.54 | 0.00 | 86 | 1010.3 |
| 20260903152223 | 56 | 167 | 5.2 | 9.6 | 0.00 | 0.54 | 0.00 | 86 | 1010.2 |
| 20260903151724 | 56 | 137 | 4.3 | 8.7 | 0.00 | 0.54 | 0.00 | 85 | 1010.3 |
| 20260903151217 | 56 | 142 | 4.3 | 8.7 | 0.00 | 0.54 | 0.00 | 86 | 1010.1 |
| 20260903150720 | 56 | 154 | 3.5 | 8.7 | 0.00 | 0.54 | 0.00 | 86 | 1010.2 |
| 20260903150217 | 56 | 153 | 2.6 | 6.1 | 0.00 | 0.54 | 0.00 | 87 | 1010.2 |
| 20260903145719 | 55 | 160 | 2.6 | 6.1 | 0.00 | 0.54 | 0.00 | 87 | 1010.1 |
| 20260903145217 | 55 | 172 | 2.6 | 6.1 | 0.00 | 0.54 | 0.00 | 87 | 1010.1 |
| 20260903144718 | 55 | 145 | 3.5 | 7.8 | 0.00 | 0.54 | 0.00 | 87 | 1010.1 |
| 20260903144216 | 55 | 163 | 3.5 | 7.8 | 0.00 | 0.54 | 0.00 | 87 | 1010.2 |
| 20260903143712 | 55 | 170 | 3.5 | 7.0 | 0.00 | 0.54 | 0.00 | 87 | 1010.2 |
| 20260903143211 | 55 | 168 | 4.3 | 7.0 | 0.00 | 0.54 | 0.00 | 87 | 1010.3 |
| 20260903142711 | 55 | 197 | 4.3 | 8.7 | 0.00 | 0.54 | 0.00 | 87 | 1010.3 |
| 20260903142211 | 55 | 163 | 4.3 | 8.7 | 0.00 | 0.54 | 0.00 | 87 | 1010.2 |
| 20260903141710 | 55 | 146 | 3.5 | 7.8 | 0.00 | 0.54 | 0.00 | 87 | 1010.1 |
| 20260903141211 | 55 | 158 | 3.5 | 7.0 | 0.00 | 0.54 | 0.00 | 87 | 1010.0 |
| 20260903140709 | 55 | 170 | 4.3 | 10.4 | 0.00 | 0.54 | 0.00 | 87 | 1010.0 |
| 20260903140219 | 55 | 174 | 6.1 | 11.3 | 0.00 | 0.54 | 0.00 | 87 | 1009.9 |
| 20260903140209 | 55 | 166 | 5.2 | 10.4 | 0.00 | 0.54 | 0.00 | 87 | 1010.0 |
| 20260903135206 | 55 | 168 | 7.0 | 13.9 | 0.00 | 0.54 | 0.00 | 87 | 1009.8 |
| 20260903134708 | 55 | 153 | 7.0 | 13.9 | 0.00 | 0.54 | 0.00 | 87 | 1009.8 |
| 20260903134205 | 55 | 159 | 7.0 | 12.2 | 0.00 | 0.54 | 0.00 | 88 | 1009.8 |
| 20260903133924 | 55 | 149 | 7.0 | 11.3 | 0.00 | 0.54 | 0.00 | 88 | 1009.6 |
| 20260903133206 | 55 | 201 | 6.1 | 10.4 | 0.00 | 0.54 | 0.00 | 88 | 1009.6 |
| 20260903132702 | 55 | 181 | 5.2 | 9.6 | 0.00 | 0.54 | 0.00 | 87 | 1009.8 |
| 20260903132204 | 55 | 181 | 5.2 | 9.6 | 0.00 | 0.54 | 0.00 | 87 | 1009.8 |
| 20260903131922 | 55 | 176 | 5.2 | 9.6 | 0.00 | 0.54 | 0.00 | 87 | 1009.9 |
| 20260903131424 | 55 | 150 | 5.2 | 9.6 | 0.00 | 0.54 | 0.00 | 87 | 1009.9 |
| 20260903130700 | 55 | 186 | 4.3 | 7.8 | 0.00 | 0.54 | 0.00 | 87 | 1009.8 |
| 20260903130159 | 55 | 144 | 5.2 | 10.4 | 0.00 | 0.54 | 0.00 | 87 | 1009.9 |
| 20260903125659 | 55 | 156 | 5.2 | 10.4 | 0.00 | 0.54 | 0.00 | 87 | 1009.8 |
| 20260903125655 | 55 | 169 | 5.2 | 11.3 | 0.00 | 0.54 | 0.00 | 87 | 1009.7 |
| 20260903124913 | 55 | 168 | 5.2 | 11.3 | 0.00 | 0.54 | 0.00 | 87 | 1009.8 |
| 20260903124156 | 55 | 185 | 5.2 | 12.2 | 0.00 | 0.54 | 0.00 | 87 | 1009.9 |
| 20260903123919 | 55 | 133 | 6.1 | 12.2 | 0.00 | 0.54 | 0.00 | 88 | 1009.9 |
| 20260903123155 | 55 | 152 | 7.0 | 12.2 | 0.00 | 0.54 | 0.00 | 88 | 1009.9 |
| 20260903122920 | 55 | 170 | 7.0 | 12.2 | 0.00 | 0.54 | 0.00 | 88 | 1009.9 |